Find Local Weather

World > North America > United States > Tennessee

Mountain City, Tennessee Regional Weather

Lat: 36.47N, Lon: 81.81W
Wx Zone: TNZ018
Warning FLW WEATHER ALERT - (More Info. Click Here) Warning
Feedback
Expires:201901201500;;650123
ASUS44 KMEG 201410
RWRTN 
TENNESSEE HOURLY STATE WEATHER ROUNDUP
NATIONAL WEATHER SERVICE MEMPHIS TN
800 AM CST SUN JAN 20 2019


TNZ017-018-042-046-047-201500-
NORTHEAST TENNESSEE
  
CITY           SKY/WX    TMP DP  RH WIND       PRES   REMARKS
TRI CITIES     CLOUDY    28  20  71 NW20      29.85R WCI  15          
ELIZABETHTON   CLOUDY    28  21  74 VRB7G18   29.83R WCI  21          
GREENEVILLE    CLOUDY    27  21  80 W15G21    29.87R WCI  15          
$$


SKY/WX - Weather  TMP - Temperature  DP - Dew Point  RH - Relative Humidity
WIND - Wind Direction/Speed PRES - Barometric Pressure